Estación de Cunco

Ultimos registro cada 15 minutos 31
Estación Fecha / Hora Temperatura Humedad Lluvia Velocidad Dirección Radiación Presion
31 Cunco 04-05-2026 07:30 10,3 100 0 0 295 0,6 988,5
30 Cunco 04-05-2026 07:15 10,1 100 0 0 288 0,6 988,6
29 Cunco 04-05-2026 07:00 10,1 100 0 0 295 0,6 988,7
28 Cunco 04-05-2026 06:45 10 100 0,4 0 256 0,6 988,7
27 Cunco 04-05-2026 06:30 10 100 0 0 192 0,6 989,1
26 Cunco 04-05-2026 06:15 9,8 100 0 0 216 0,6 988,9
25 Cunco 04-05-2026 06:00 9,8 100 0 0 288 0,6 988,5
24 Cunco 04-05-2026 05:45 9,7 100 0 0 296 0,6 988,5
23 Cunco 04-05-2026 05:30 9,7 100 0 0 282 0,6 988,9
22 Cunco 04-05-2026 05:15 9,7 100 0 0 288 0,6 988,9
21 Cunco 04-05-2026 05:00 9,7 100 0 0 241 0,6 988,8
20 Cunco 04-05-2026 04:45 9,7 100 0 0 219 0,6 988,7
19 Cunco 04-05-2026 04:30 9,8 100 0 0 208 0,6 988,7
18 Cunco 04-05-2026 04:15 9,8 100 0 0 185 0,6 988,7
17 Cunco 04-05-2026 04:00 9,5 100 0 0 7 0,6 988,8
16 Cunco 04-05-2026 03:45 9,5 100 0 0 307 0,6 988,8
15 Cunco 04-05-2026 03:30 9,4 100 0 0 298 0,6 988,8
14 Cunco 04-05-2026 03:15 9,5 100 0 0 247 0,6 988,9
13 Cunco 04-05-2026 03:00 9,5 100 0 0 185 0,6 989,1
12 Cunco 04-05-2026 02:45 9,3 100 0 0 183 0,6 989,5
11 Cunco 04-05-2026 02:30 9,3 100 0 0 181 0,6 989,5
10 Cunco 04-05-2026 02:15 9,3 100 0 0 115 0,6 989,7
9 Cunco 04-05-2026 02:00 9 100 0 0 48 0,6 989,7
8 Cunco 04-05-2026 01:45 9,2 100 0 0 122 0,6 989,8
7 Cunco 04-05-2026 01:30 8,8 100 0 0 121 0,6 989,9
6 Cunco 04-05-2026 01:15 8,4 100 0 0 215 0,6 990,1
5 Cunco 04-05-2026 01:00 7,9 100 0 0 184 0,6 990,1
4 Cunco 04-05-2026 00:45 8,5 99,9 0 0 38 0,6 990,2
3 Cunco 04-05-2026 00:30 8,6 100 0 0 38 0,6 990,3
2 Cunco 04-05-2026 00:15 8,9 99,7 0 0 38 0,6 990,5
1 Cunco 04-05-2026 00:00 9 99,8 0 0 38 0,6 990,7